Weather in Kruch'

Russia / Oryol Oblast     52°34′15″N   37°17′14″E
temp.,
°C
wind,
m/s
gust,
m/s
humid.,
%
clouds,
%
prec.,
mm/h
press.,
hPa
HPBL,
m
14 may, fri
fri1400:00+10se339451 0.0 101650
03:00+10ese349499 0.0 101665
06:00+11e369589 0.0 1015139
09:00+16ese5781100 0.1 1014434
12:00+20se7107485 0.0 1013960
15:00+22sse81374100 2.2 10111342
18:00+20sse7137689 0.3 1010796
21:00+16se41291100 1.3 1009262
15 may, sat
sat1500:00+15sse399647 4.8 1009234
03:00+14ssw239619 4.9 100943
06:00+13ssw3792100 0.0 1010163
09:00+17ssw5879100 0.0 1011453
12:00+20ssw67618 0.0 10121271
15:00+21ssw696017 0.0 10112033
18:00+18ssw59735 0.6 1012825
21:00+14ssw36880 0.6 1013106
16 may, sun
sun1600:00+13sw35915 0.0 101474
03:00+12ssw2291100 0.0 101415
06:00+13sse2487100 0.0 101494
09:00+18ssw347255 0.0 1015471
12:00+21ssw34605 0.1 10151151
15:00+23s245051 0.1 10142077
18:00+23ne1159100 0.0 1013210
21:00+17ne33687 0.0 101337
17 may, mon
mon1700:00+15ene488343 0.1 1013140
03:00+14ene4109468 0.1 1012178
06:00+15ene4119059 0.0 1011243
09:00+19ese5972100 0.0 1010368
12:00+24se71155100 0.0 1010888
15:00+25se71358100 0.0 10091397
18:00+22se71464100 0.0 1007584
21:00+18se513815 0.0 1007272
18 may, tue
tue1800:00+16se4118566 0.0 1007197
03:00+15se388995 0.0 1006148
06:00+15se499097 0.0 1006221
09:00+20sse5682100 0.0 1005452
12:00+22s91171100 0.1 10071381
15:00+19ssw51081100 0.1 1008934
18:00+19ssw5880100 0.9 1008863
21:00+15sse3791100 2.4 1008131